Weather in Belskoye Ustye

Russia / Pskov Oblast     57°40′21″N   29°42′06″E
temp.,
°C
wind,
m/s
gust,
m/s
humid.,
%
clouds,
%
prec.,
mm/h
press.,
hPa
HPBL,
m
22 january, fri
fri2200:000s3894100 0.0 1003337
03:00−2s3894100 0.0 1003242
06:00−1ssw399498 0.0 1002381
09:00+1ssw389599 0.0 1003402
12:00+1ssw3896100 0.0 1003457
15:00+1s3995100 0.0 1003513
18:00+1s3796100 0.0 1002280
21:000sse3896100 0.0 1002238
23 january, sat
sat2300:00+1sse4994100 0.0 1002411
03:00+1s4995100 0.0 1001557
06:00+1sse3797100 0.0 1001231
09:00+1s3798100 0.3 1001237
12:00+2ssw2799100 0.0 1003269
15:00+2sw2610098 0.0 1005221
18:00+1ssw1298100 0.0 100641
21:00+1se2497100 0.0 1006119
24 january, sun
sun2400:00+1se3897100 0.0 1005297
03:00+2se3998100 0.0 1004335
06:00+1sse51297100 0.4 1003456
09:00+2sse51296100 0.9 1003440
12:00+2sse51296100 0.1 1003470
15:00+2sse51198100 0.1 1002629
18:00+2sse31196100 0.1 1002471
21:00+2se41197100 0.1 1000449
25 january, mon
mon2500:00+3se41396100 0.1 999491
03:00+3se51495100 0.2 998608
06:00+3se41294100 0.0 996671
09:00+3se51295100 0.8 995640
12:00+3s51296100 1.1 997502
15:00+2sw51297100 1.8 1000705
18:00+1ssw398895 0.1 1003532
21:00+1s398791 0.1 1006491
26 january, tue
tue2600:00+1sse2693100 0.0 1007246
03:000se1298100 0.0 100755
06:00−1ene2297100 0.0 100563
09:00+1ene3798100 0.0 1004331
12:00+2ene3898100 1.1 1002321
15:00+3e41198100 2.8 1000596
18:00+2e4998100 1.3 999456
21:00+1ese3898100 2.8 999395